FENGYUN 1C DEB

Satellite information

Favourite Embed

Satellite Type and Status

DEBRISIN ORBIT

Key statistics

Satellite FENGYUN 1C DEB at a glance.

Uptime

9500

Days in orbit

Revolutions

≈ 14.1

Per day

Orbit

SSO

Sun Synchronous Orbit

Inclination

98.3

Latest

Satellite identification and parameters

Extended collection of information and parameters for FENGYUN 1C DEB.

Object identification

Identified? True

Debris? True

Object name: FENGYUN 1C DEB

International designator: 1999-025AXE

Object number (NORAD): 30868

Object ID (CCSDS): 30868

Country: PEOPLES REPUBLIC OF CHINA (PRC)

Current information (Y/N): Y

RCS size: SMALL

Orbital parameters

Period: 102.057 minutes

Inclination: 98.2926 deg

SMA: 7234.153 km

Apoapsis: 955.22 km

Periapsis: 756.815 km

RAAN: 23.1683 deg

Eccentricy: 0.0137131

Argument of periapsis: 121.2458 deg

Mean anomaly: 31.8215 deg

Mean motion: 14.10981273 rev/day

Mean motion (dot): 0.00000355 rev/day2

B* drag term: 0.00020007 1/REarth

Two-line elements (TLE)

Creation date: May 9, 2025, 2:46 a.m.

Reference frame: TEME

Reference center: EARTH

Epoch: May 8, 2025, 4:05 a.m. UTC

TLE line 0: 0 FENGYUN 1C DEB

TLE line 1: 1 30868U 99025AXE 25128.17069559 .00000355 00000-0 20007-3 0 9995

TLE line 2: 2 30868 98.2926 23.1683 0137131 121.2458 31.8215 14.10981273936289

Live tracking on map

Real-time ground track for satellite FENGYUN 1C DEB.

In-orbit conjunctions

A list of the most updated potential collisions computed for object FENGYUN 1C DEB.

Target Orbit TCA Probability of collision Miss distance Type
SL-8 R/B LEO 2025-01-13 23:32:54 0.0002420317 116.0 (m) ROCKET BODY
COSMOS 2251 DEB LEO 2024-10-25 12:37:27 0.0001771497 134.0 (m) DEBRIS

Associated space launch

Chinese polar orbiting meteorological satellite

FENGYUN 1C DEB was lifted into orbit during the mission ‘Long March 4B | Feng Yun 1C’, on board a Long March 4B space rocket.

The launch took place on May 10, 1999, 1:33 a.m. from Launch Complex 7.

For more information about the launch, click the button.

Launch to space Long March 4B | Feng Yun 1C
Long March 4B | Feng Yun 1C

Agency: N/A

Status: Launch Successful

Launch date: May 10, 1999, 1:33 a.m. UTC

Rocket: Long March 4B

Launch pad: Launch Complex 7

Location: Taiyuan Satellite Launch Center, People's Republic of China

...

Latest news about this satellite

There are no fresh news available about this satellite. Check back as we update our databases every day.


Newsletter sign-up

Weekly statistics, charts and insights to help you stay on top of the space industry.